Regional Weather Roundup
Issued by NWS Cleveland, OH

Home | Current Version | Previous Version | Graphics & Text | Print | Product List | Glossary On
Versions: 1 2 3 4 5 6 7 8 9 10 11 12 13 14 15 16 17 18 19 20 21 22 23 24 25 26 27 28 29 30 31 32 33 34 35 36 37 38 39 40 41 42 43 44 45 46 47 48 49 50
000
ASUS41 KCLE 250910
RWRCLE
OHIO REGIONAL WEATHER ROUNDUP
NATIONAL WEATHER SERVICE WILMINGTON, OH
500 AM EDT SAT OCT 25 2014

NOTE: "FAIR" INDICATES FEW OR NO CLOUDS BELOW 12,000 FEET WITH NO
SIGNIFICANT WEATHER AND/OR OBSTRUCTIONS TO VISIBILITY.

OHZ001>008-015>018-024>027-034-035-043-044-251000-
   NORTHWEST OHIO

CITY           SKY/WX    TMP DP  RH WIND       PRES   REMARKS
DEFIANCE       CLOUDY    50  48  93 S5        29.92F FOG
FINDLAY        MOCLDY    51  47  86 SW8       29.93F
TOLEDO EXPRESS MOCLDY    50  48  93 SW8       29.90F FOG
TOLEDO METCALF MOCLDY    47  44  90 SW6       29.92F FOG
LIMA           PTCLDY    51  46  83 SW6       29.95F
$$

OHZ009>014-019>023-028>033-038-089-251000-
   NORTHEAST OHIO

CITY           SKY/WX    TMP DP  RH WIND       PRES   REMARKS
CLE-HOPKINS    PTCLDY    50  42  74 SW8       29.94F
CLE-LAKEFRONT  PTCLDY    55  44  66 SW14      29.91F
CUY CO. ARPT   NOT AVBL
LORAIN-ELYRIA  PTCLDY    48  43  82 SW7       29.93F
ASHTABULA      CLOUDY    50  44  80 SW5       29.92F
AKRON-CANTON   PTCLDY    45  38  76 SW5       29.95F
WOOSTER        CLEAR     44  38  79 CALM      29.95F
MANSFIELD      PTCLDY    48  43  82 SW5       29.95F
YOUNGSTOWN     PTCLDY    47  39  74 SW3       29.93F
$$

OHZ042-051>053-060>062-070>072-077>081-251000-
  SOUTHWEST OHIO

CITY           SKY/WX    TMP DP  RH WIND       PRES   REMARKS
CINC-COVINGTON CLOUDY    49  43  80 S5        30.01F
CINC-LUNKEN    PTCLDY    42  41  96 CALM      30.03F FOG
HAMILTON       MOCLDY    42  41  96 CALM      30.01F FOG
DAYTON         MOCLDY    50  45  83 SW9       29.99F
WRIGHT-PAT AFB CLOUDY    49  45  87 S6        29.99F
DAYTON GENERAL PTCLDY    49  43  80 S3        29.99F
WILMINGTON     PTCLDY    47  40  76 SW5       30.00F
$$

OHZ036-037-039>041-045>050-054>059-063>069-073>076-082>088-251000-
  CENTRAL AND SOUTHEAST OHIO

CITY           SKY/WX    TMP DP  RH WIND       PRES   REMARKS
COLUMBUS       CLOUDY    46  38  73 SE3       29.99F
OSU AIRPORT    MOCLDY    45  39  79 CALM      29.98F
BOLTON FIELD   PTCLDY    45  40  83 SW3       29.99F
RICKENBACK AFB PTCLDY    43  39  85 S5        29.99F
NEWARK         PTCLDY    38  35  89 CALM      29.98F FOG
MARION         MOCLDY    49  43  80 SW8       29.96F
LANCASTER      PTCLDY    43  38  82 SE5       29.99F
ZANESVILLE     CLEAR     37  35  92 CALM      29.99F
NEW PHILLY     PTCLDY    41  39  93 SE3       29.98F
$$



USA.gov is the U.S. government's official web portal to all federal, state and local government web resources and services.